Time,TemperatureF,DewpointF,PressureIn,WindDirection,WindDirectionDegrees,WindSpeedMPH,WindSpeedGustMPH,Humidity,HourlyPrecipIn,Conditions,Clouds,dailyrainin,SoftwareType,DateUTC
2013-03-16 00:02:00,64.0,52.0,30.00,SSW,213,13.0,19.0,66,0.00,,,0.00,,2013-03-16 05:02:00,
2013-03-16 00:12:00,64.0,52.0,30.00,SSW,213,13.0,19.0,66,0.00,,,0.00,,2013-03-16 05:12:00,
2013-03-16 00:22:00,63.0,53.0,30.00,SW,217,14.0,19.0,70,0.00,,,0.00,,2013-03-16 05:22:00,
2013-03-16 00:32:00,63.0,53.0,29.99,SW,217,16.0,22.0,71,0.00,,,0.00,,2013-03-16 05:32:00,
2013-03-16 00:42:00,63.0,53.0,29.99,SW,217,16.0,22.0,71,0.00,,,0.00,,2013-03-16 05:42:00,
2013-03-16 00:52:00,62.0,53.0,29.99,SSW,212,13.0,22.0,73,0.00,,,0.00,,2013-03-16 05:52:00,
2013-03-16 01:02:00,62.0,54.0,29.98,SSW,200,12.0,21.0,74,0.00,,,0.00,,2013-03-16 06:02:00,
2013-03-16 01:12:00,62.0,54.0,29.98,SSW,200,12.0,21.0,74,0.00,,,0.00,,2013-03-16 06:12:00,
2013-03-16 01:22:00,61.0,53.0,29.98,SW,215,13.0,18.0,76,0.00,,,0.00,,2013-03-16 06:22:00,
2013-03-16 01:32:00,61.0,53.0,29.98,SW,215,13.0,18.0,76,0.00,,,0.00,,2013-03-16 06:32:00,
2013-03-16 01:42:00,61.0,53.0,29.98,SW,215,13.0,18.0,76,0.00,,,0.00,,2013-03-16 06:42:00,
2013-03-16 01:52:00,61.0,54.0,29.98,SW,222,14.0,21.0,78,0.00,,,0.00,,2013-03-16 06:52:00,
2013-03-16 02:02:00,60.0,54.0,29.99,SW,222,11.0,22.0,80,0.00,,,0.00,,2013-03-16 07:02:00,
2013-03-16 02:12:00,60.0,54.0,29.99,SW,222,11.0,22.0,80,0.00,,,0.00,,2013-03-16 07:12:00,
2013-03-16 02:22:00,60.0,54.0,29.98,SSW,205,13.0,20.0,81,0.00,,,0.00,,2013-03-16 07:22:00,
2013-03-16 02:32:00,60.0,55.0,29.98,SW,215,12.0,21.0,83,0.00,,,0.00,,2013-03-16 07:32:00,
2013-03-16 02:42:00,60.0,55.0,29.98,SW,215,12.0,21.0,83,0.00,,,0.00,,2013-03-16 07:42:00,
2013-03-16 02:52:00,59.0,54.0,29.98,SW,229,14.0,19.0,84,0.00,,,0.00,,2013-03-16 07:52:00,
2013-03-16 03:02:00,59.0,54.0,29.98,SSW,206,11.0,18.0,85,0.00,,,0.00,,2013-03-16 08:02:00,
2013-03-16 03:12:00,59.0,54.0,29.98,SSW,206,11.0,18.0,85,0.00,,,0.00,,2013-03-16 08:12:00,
2013-03-16 03:23:00,59.0,55.0,29.97,SW,217,13.0,17.0,86,0.00,,,0.00,,2013-03-16 08:23:00,
2013-03-16 03:32:00,58.0,54.0,29.98,SSW,211,11.0,17.0,87,0.00,,,0.00,,2013-03-16 08:32:00,
2013-03-16 03:42:00,58.0,54.0,29.98,SSW,211,11.0,17.0,87,0.00,,,0.00,,2013-03-16 08:42:00,
2013-03-16 03:52:00,58.0,54.0,29.98,SSW,204,11.0,17.0,88,0.00,,,0.00,,2013-03-16 08:52:00,
2013-03-16 04:01:00,58.0,54.0,29.97,SSW,208,9.0,14.0,88,0.00,,,0.00,,2013-03-16 09:01:00,
2013-03-16 04:12:00,58.0,54.0,29.97,SSW,208,9.0,14.0,88,0.00,,,0.00,,2013-03-16 09:12:00,
2013-03-16 04:22:00,58.0,55.0,29.97,SW,217,8.0,15.0,89,0.00,,,0.00,,2013-03-16 09:22:00,
2013-03-16 04:33:00,58.0,55.0,29.97,SSW,211,10.0,16.0,89,0.00,,,0.00,,2013-03-16 09:33:00,
2013-03-16 04:42:00,58.0,55.0,29.97,SSW,211,10.0,16.0,89,0.00,,,0.00,,2013-03-16 09:42:00,
2013-03-16 04:52:00,57.0,54.0,29.97,SSW,212,8.0,12.0,89,0.00,,,0.00,,2013-03-16 09:52:00,
2013-03-16 05:03:00,57.0,54.0,29.97,SSW,212,7.0,14.0,89,0.00,,,0.00,,2013-03-16 10:03:00,
2013-03-16 05:12:00,57.0,54.0,29.97,SSW,212,7.0,14.0,89,0.00,,,0.00,,2013-03-16 10:12:00,
2013-03-16 05:23:00,57.0,54.0,29.97,SSW,202,7.0,13.0,90,0.00,,,0.00,,2013-03-16 10:23:00,
2013-03-16 05:32:00,57.0,54.0,29.97,SW,217,8.0,12.0,90,0.00,,,0.00,,2013-03-16 10:32:00,
2013-03-16 05:42:00,57.0,54.0,29.97,SW,217,8.0,12.0,90,0.00,,,0.00,,2013-03-16 10:42:00,
2013-03-16 05:52:00,57.0,54.0,29.97,SSW,211,8.0,12.0,90,0.00,,,0.00,,2013-03-16 10:52:00,
2013-03-16 06:03:00,57.0,54.0,29.97,SSW,213,9.0,14.0,90,0.00,,,0.00,,2013-03-16 11:03:00,
2013-03-16 06:12:00,57.0,54.0,29.97,SSW,213,9.0,14.0,90,0.00,,,0.00,,2013-03-16 11:12:00,
2013-03-16 06:22:00,57.0,54.0,29.97,SW,218,8.0,18.0,89,0.00,,,0.00,,2013-03-16 11:22:00,
2013-03-16 06:32:00,57.0,54.0,29.97,SW,218,8.0,18.0,89,0.00,,,0.00,,2013-03-16 11:32:00,
2013-03-16 06:42:00,57.0,54.0,29.97,SW,218,8.0,18.0,89,0.00,,,0.00,,2013-03-16 11:42:00,
2013-03-16 06:52:00,58.0,55.0,29.98,SSW,201,8.0,13.0,90,0.00,,,0.00,,2013-03-16 11:52:00,
2013-03-16 07:02:00,58.0,55.0,29.98,SSW,207,10.0,14.0,90,0.00,,,0.00,,2013-03-16 12:02:00,
2013-03-16 07:12:00,58.0,55.0,29.98,SSW,207,10.0,14.0,90,0.00,,,0.00,,2013-03-16 12:12:00,
2013-03-16 07:22:00,57.0,54.0,29.98,SSW,205,11.0,18.0,90,0.00,,,0.00,,2013-03-16 12:22:00,
2013-03-16 07:32:00,57.0,54.0,29.98,SW,218,11.0,16.0,91,0.00,,,0.00,,2013-03-16 12:32:00,
2013-03-16 07:42:00,57.0,54.0,29.98,SW,218,11.0,16.0,91,0.00,,,0.00,,2013-03-16 12:42:00,
2013-03-16 07:52:00,57.0,54.0,29.98,SW,217,11.0,17.0,91,0.00,,,0.00,,2013-03-16 12:52:00,
2013-03-16 08:02:00,57.0,54.0,29.99,SSW,205,8.0,15.0,91,0.00,,,0.00,,2013-03-16 13:02:00,
2013-03-16 08:12:00,57.0,54.0,29.99,SSW,205,8.0,15.0,91,0.00,,,0.00,,2013-03-16 13:12:00,
2013-03-16 08:22:00,56.0,53.0,29.99,SSW,202,5.0,10.0,91,0.00,,,0.00,,2013-03-16 13:22:00,
2013-03-16 08:32:00,56.0,53.0,30.00,SSW,211,5.0,9.0,91,0.00,,,0.00,,2013-03-16 13:32:00,
2013-03-16 08:42:00,56.0,53.0,30.00,SSW,211,5.0,9.0,91,0.00,,,0.00,,2013-03-16 13:42:00,
2013-03-16 08:52:00,57.0,54.0,30.00,SSW,211,8.0,12.0,90,0.00,,,0.00,,2013-03-16 13:52:00,
2013-03-16 09:02:00,57.0,54.0,30.00,SW,215,7.0,14.0,90,0.00,,,0.00,,2013-03-16 14:02:00,
2013-03-16 09:12:00,57.0,54.0,30.00,SW,215,7.0,14.0,90,0.00,,,0.00,,2013-03-16 14:12:00,
2013-03-16 09:22:00,58.0,55.0,30.00,SSW,213,10.0,15.0,89,0.00,,,0.00,,2013-03-16 14:22:00,
2013-03-16 09:32:00,59.0,55.0,30.00,SW,225,12.0,18.0,86,0.00,,,0.00,,2013-03-16 14:32:00,
2013-03-16 09:42:00,59.0,55.0,30.00,SW,225,12.0,18.0,86,0.00,,,0.00,,2013-03-16 14:42:00,
2013-03-16 09:52:00,60.0,55.0,30.01,SSW,212,13.0,19.0,84,0.00,,,0.00,,2013-03-16 14:52:00,
2013-03-16 10:02:00,61.0,55.0,30.01,SW,226,14.0,18.0,82,0.00,,,0.00,,2013-03-16 15:02:00,
2013-03-16 10:12:00,61.0,55.0,30.01,SW,226,14.0,18.0,82,0.00,,,0.00,,2013-03-16 15:12:00,
2013-03-16 10:22:00,62.0,56.0,30.01,SW,214,13.0,22.0,80,0.00,,,0.00,,2013-03-16 15:22:00,
2013-03-16 10:33:00,64.0,57.0,30.00,SW,234,12.0,20.0,78,0.00,,,0.00,,2013-03-16 15:33:00,
2013-03-16 10:43:00,64.0,57.0,30.00,SW,234,12.0,20.0,78,0.00,,,0.00,,2013-03-16 15:43:00,
2013-03-16 10:53:00,65.0,57.0,30.00,SW,217,12.0,19.0,75,0.00,,,0.00,,2013-03-16 15:53:00,
2013-03-16 11:03:00,65.0,56.0,30.00,SW,232,12.0,20.0,74,0.00,,,0.00,,2013-03-16 16:03:00,
2013-03-16 11:12:00,65.0,56.0,30.00,SW,232,12.0,20.0,74,0.00,,,0.00,,2013-03-16 16:12:00,
2013-03-16 11:22:00,67.0,57.0,30.00,SW,225,17.0,25.0,70,0.00,,,0.00,,2013-03-16 16:22:00,
2013-03-16 11:33:00,67.0,57.0,30.00,SW,230,16.0,24.0,70,0.00,,,0.00,,2013-03-16 16:33:00,
2013-03-16 11:42:00,67.0,57.0,30.00,SW,230,16.0,24.0,70,0.00,,,0.00,,2013-03-16 16:42:00,
2013-03-16 11:52:00,67.0,56.0,30.00,SW,223,16.0,26.0,67,0.00,,,0.00,,2013-03-16 16:52:00,
2013-03-16 12:03:00,69.0,56.0,29.99,SSW,213,15.0,22.0,63,0.00,,,0.00,,2013-03-16 17:03:00,
2013-03-16 12:12:00,69.0,56.0,29.99,SSW,213,15.0,22.0,63,0.00,,,0.00,,2013-03-16 17:12:00,
2013-03-16 12:23:00,70.0,56.0,29.99,SW,225,14.0,20.0,61,0.00,,,0.00,,2013-03-16 17:23:00,
2013-03-16 12:32:00,71.0,56.0,29.98,SW,221,14.0,18.0,60,0.00,,,0.00,,2013-03-16 17:32:00,
2013-03-16 12:42:00,71.0,56.0,29.98,SW,221,14.0,18.0,60,0.00,,,0.00,,2013-03-16 17:42:00,
2013-03-16 12:52:00,71.0,55.0,29.98,SW,224,11.0,18.0,57,0.00,,,0.00,,2013-03-16 17:52:00,
2013-03-16 13:02:00,72.0,55.0,29.97,SW,221,13.0,20.0,55,0.00,,,0.00,,2013-03-16 18:02:00,
2013-03-16 13:13:00,72.0,55.0,29.97,SW,221,13.0,20.0,55,0.00,,,0.00,,2013-03-16 18:13:00,
2013-03-16 13:23:00,72.0,55.0,29.97,SW,221,13.0,20.0,55,0.00,,,0.00,,2013-03-16 18:23:00,
2013-03-16 13:33:00,73.0,55.0,29.96,SW,223,11.0,17.0,54,0.00,,,0.00,,2013-03-16 18:33:00,
2013-03-16 13:42:00,73.0,55.0,29.96,SW,223,11.0,17.0,54,0.00,,,0.00,,2013-03-16 18:42:00,
2013-03-16 13:53:00,73.0,55.0,29.95,SW,230,13.0,19.0,53,0.00,,,0.00,,2013-03-16 18:53:00,
2013-03-16 14:02:00,74.0,54.0,29.94,SSW,213,11.0,17.0,50,0.00,,,0.00,,2013-03-16 19:02:00,
2013-03-16 14:12:00,74.0,54.0,29.94,SSW,213,11.0,17.0,50,0.00,,,0.00,,2013-03-16 19:12:00,
2013-03-16 14:22:00,75.0,53.0,29.93,SSW,213,14.0,18.0,47,0.00,,,0.00,,2013-03-16 19:22:00,
2013-03-16 14:32:00,75.0,54.0,29.92,South,191,12.0,21.0,48,0.00,,,0.00,,2013-03-16 19:32:00,
2013-03-16 14:42:00,75.0,54.0,29.92,South,191,12.0,21.0,48,0.00,,,0.00,,2013-03-16 19:42:00,
2013-03-16 14:52:00,75.0,55.0,29.91,South,181,10.0,18.0,50,0.00,,,0.00,,2013-03-16 19:52:00,
2013-03-16 15:02:00,76.0,54.0,29.90,SW,217,12.0,19.0,47,0.00,,,0.00,,2013-03-16 20:02:00,
2013-03-16 15:12:00,76.0,54.0,29.90,SW,217,12.0,19.0,47,0.00,,,0.00,,2013-03-16 20:12:00,
2013-03-16 15:22:00,76.0,54.0,29.89,South,180,13.0,21.0,47,0.00,,,0.00,,2013-03-16 20:22:00,
2013-03-16 15:32:00,76.0,54.0,29.88,SSW,211,12.0,20.0,46,0.00,,,0.00,,2013-03-16 20:32:00,
2013-03-16 15:42:00,76.0,54.0,29.88,SSW,211,12.0,20.0,46,0.00,,,0.00,,2013-03-16 20:42:00,
2013-03-16 15:52:00,76.0,54.0,29.88,SW,227,8.0,22.0,47,0.00,,,0.00,,2013-03-16 20:52:00,
2013-03-16 16:02:00,76.0,54.0,29.87,SSW,196,10.0,21.0,46,0.00,,,0.00,,2013-03-16 21:02:00,
2013-03-16 16:12:00,76.0,54.0,29.87,SSW,196,10.0,21.0,46,0.00,,,0.00,,2013-03-16 21:12:00,
2013-03-16 16:22:00,77.0,53.0,29.87,South,181,10.0,16.0,44,0.00,,,0.00,,2013-03-16 21:22:00,
2013-03-16 16:33:00,77.0,53.0,29.87,SW,225,11.0,19.0,43,0.00,,,0.00,,2013-03-16 21:33:00,
2013-03-16 16:43:00,77.0,53.0,29.87,SW,225,11.0,19.0,43,0.00,,,0.00,,2013-03-16 21:43:00,
2013-03-16 16:52:00,77.0,55.0,29.86,South,175,9.0,17.0,46,0.00,,,0.00,,2013-03-16 21:52:00,
2013-03-16 17:03:00,77.0,54.0,29.86,SSW,194,12.0,19.0,45,0.00,,,0.00,,2013-03-16 22:03:00,
2013-03-16 17:12:00,77.0,54.0,29.86,SSW,194,12.0,19.0,45,0.00,,,0.00,,2013-03-16 22:12:00,
2013-03-16 17:22:00,77.0,54.0,29.85,SSW,201,12.0,19.0,45,0.00,,,0.00,,2013-03-16 22:22:00,
2013-03-16 17:33:00,77.0,53.0,29.85,SSW,196,12.0,18.0,43,0.00,,,0.00,,2013-03-16 22:33:00,
2013-03-16 17:42:00,77.0,53.0,29.85,SSW,196,12.0,18.0,43,0.00,,,0.00,,2013-03-16 22:42:00,
2013-03-16 17:52:00,76.0,53.0,29.85,South,190,10.0,19.0,45,0.00,,,0.00,,2013-03-16 22:52:00,
2013-03-16 18:02:00,76.0,54.0,29.84,SSW,199,12.0,19.0,46,0.00,,,0.00,,2013-03-16 23:02:00,
2013-03-16 18:12:00,76.0,54.0,29.84,SSW,199,12.0,19.0,46,0.00,,,0.00,,2013-03-16 23:12:00,
2013-03-16 18:22:00,76.0,53.0,29.85,SSW,200,11.0,17.0,45,0.00,,,0.00,,2013-03-16 23:22:00,
2013-03-16 18:33:00,75.0,52.0,29.85,SW,214,11.0,17.0,45,0.00,,,0.00,,2013-03-16 23:33:00,
2013-03-16 18:42:00,75.0,52.0,29.85,SW,214,11.0,17.0,45,0.00,,,0.00,,2013-03-16 23:42:00,
2013-03-16 18:52:00,75.0,53.0,29.84,SSW,202,10.0,17.0,46,0.00,,,0.00,,2013-03-16 23:52:00,
2013-03-16 19:02:00,75.0,53.0,29.84,SSW,192,12.0,19.0,46,0.00,,,0.00,,2013-03-17 00:02:00,
2013-03-16 19:12:00,75.0,53.0,29.84,SSW,192,12.0,19.0,46,0.00,,,0.00,,2013-03-17 00:12:00,
2013-03-16 19:22:00,74.0,52.0,29.84,South,171,10.0,18.0,46,0.00,,,0.00,,2013-03-17 00:22:00,
2013-03-16 19:32:00,73.0,52.0,29.84,South,182,8.0,14.0,48,0.00,,,0.00,,2013-03-17 00:32:00,
2013-03-16 19:42:00,73.0,52.0,29.84,South,182,8.0,14.0,48,0.00,,,0.00,,2013-03-17 00:42:00,
2013-03-16 19:52:00,72.0,52.0,29.84,SSW,194,7.0,15.0,49,0.00,,,0.00,,2013-03-17 00:52:00,
2013-03-16 20:02:00,71.0,51.0,29.84,SSW,192,6.0,9.0,50,0.00,,,0.00,,2013-03-17 01:02:00,
2013-03-16 20:12:00,71.0,51.0,29.84,SSW,192,6.0,9.0,50,0.00,,,0.00,,2013-03-17 01:12:00,
2013-03-16 20:22:00,70.0,51.0,29.84,SSW,194,5.0,9.0,51,0.00,,,0.00,,2013-03-17 01:22:00,
2013-03-16 20:32:00,69.0,51.0,29.85,South,190,5.0,7.0,53,0.00,,,0.00,,2013-03-17 01:32:00,
2013-03-16 20:42:00,69.0,51.0,29.85,South,190,5.0,7.0,53,0.00,,,0.00,,2013-03-17 01:42:00,
2013-03-16 20:52:00,68.0,51.0,29.85,SSE,161,5.0,8.0,54,0.00,,,0.00,,2013-03-17 01:52:00,
2013-03-16 21:02:00,67.0,51.0,29.85,South,173,7.0,12.0,56,0.00,,,0.00,,2013-03-17 02:02:00,
2013-03-16 21:12:00,67.0,51.0,29.85,South,173,7.0,12.0,56,0.00,,,0.00,,2013-03-17 02:12:00,
2013-03-16 21:22:00,67.0,52.0,29.85,South,187,7.0,10.0,58,0.00,,,0.00,,2013-03-17 02:22:00,
2013-03-16 21:33:00,66.0,51.0,29.86,South,177,7.0,10.0,59,0.00,,,0.00,,2013-03-17 02:33:00,
2013-03-16 21:42:00,66.0,51.0,29.86,South,177,7.0,10.0,59,0.00,,,0.00,,2013-03-17 02:42:00,
2013-03-16 21:52:00,66.0,51.0,29.86,South,177,7.0,10.0,59,0.00,,,0.00,,2013-03-17 02:52:00,
2013-03-16 22:02:00,66.0,52.0,29.87,South,184,6.0,9.0,60,0.00,,,0.00,,2013-03-17 03:02:00,
2013-03-16 22:12:00,66.0,52.0,29.87,South,184,6.0,9.0,60,0.00,,,0.00,,2013-03-17 03:12:00,
2013-03-16 22:22:00,65.0,51.0,29.87,South,179,4.0,8.0,60,0.00,,,0.00,,2013-03-17 03:22:00,
2013-03-16 22:33:00,65.0,52.0,29.87,South,180,6.0,8.0,62,0.00,,,0.00,,2013-03-17 03:33:00,
2013-03-16 22:43:00,65.0,52.0,29.87,South,180,6.0,8.0,62,0.00,,,0.00,,2013-03-17 03:43:00,
2013-03-16 22:52:00,66.0,52.0,29.88,SSW,199,6.0,8.0,60,0.00,,,0.00,,2013-03-17 03:52:00,
2013-03-16 23:03:00,66.0,52.0,29.88,SSW,203,6.0,10.0,60,0.00,,,0.00,,2013-03-17 04:03:00,
2013-03-16 23:12:00,66.0,52.0,29.88,SSW,203,6.0,10.0,60,0.00,,,0.00,,2013-03-17 04:12:00,
2013-03-16 23:23:00,66.0,52.0,29.88,SSW,197,4.0,7.0,60,0.00,,,0.00,,2013-03-17 04:23:00,
2013-03-16 23:32:00,65.0,52.0,29.89,SSW,193,6.0,10.0,62,0.00,,,0.00,,2013-03-17 04:32:00,
2013-03-16 23:42:00,65.0,52.0,29.89,SSW,193,6.0,10.0,62,0.00,,,0.00,,2013-03-17 04:42:00,
2013-03-16 23:53:00,65.0,53.0,29.89,SSW,207,7.0,12.0,64,0.00,,,0.00,,2013-03-17 04:53:00,